Location: Yellowknife
(62.4500°N, 114.3500°W)
Time: 23:39:04
(UTC-07:00)

Envisat - Pass Details

Date: 05 October 2023
Orbit: 762 x 764 km, 98.3° (Epoch: 02 December)

Event Time Altitude Azimuth Distance (km) Brightness Sun altitude
Rises 03:47:38 0° 21° (NNE) 3,248 7.4 -26.6°
Reaches altitude 10° 03:50:50 10° 42° (NE) 2,317 6.5 -26.4°
Maximum altitude 03:54:03 17° 81° (E) 1,890 5.6 -26.2°
Drops below altitude 10° 03:57:16 10° 121° (ESE) 2,306 5.6 -25.9°
Sets 04:00:25 0° 142° (SE) 3,227 6.2 -25.7°
